Location: Boitzum
(52.1496°N, 9.6943°E)
Time: 23:41:44
(UTC+00:00)

Cosmos 1763 Rocket - Pass Details

Date: 13 January 2026
Orbit: 729 x 773 km, 74.0° (Epoch: 18 February)

Event Time Altitude Azimuth Distance (km) Brightness Sun altitude
Exits shadow 06:16:45 - 332° (NNW) 2,619 5.8 -10.0°
Reaches altitude 10° 06:17:43 10° 331° (NNW) 2,238 5.5 -9.8°
Maximum altitude 06:22:44 68° 249° (WSW) 789 3.4 -9.1°
Drops below altitude 10° 06:27:45 10° 167° (SSE) 2,233 6.5 -8.4°
Sets 06:30:06 0° 165° (SSE) 3,156 7.3 -8.1°
